Location: Hradec Kralove
(50.2170°N, 15.8330°E)
Time: 15:56:08
(UTC+01:00)

Explorer 11/Cluster Stage 4 - Pass Details

Date: 30 January 2023
Orbit: 466 x 1241 km, 28.8° (Epoch: 20 March)

Event Time Altitude Azimuth Distance (km) Brightness Sun altitude
Rises 06:47:14 0° 212° (SSW) 4,160 10.1 -7.8°
Reaches altitude 10° 06:53:50 10° 174° (S) 3,116 10.0 -6.8°
Maximum altitude 06:54:47 10° 167° (SSE) 3,078 10.1 -6.6°
Drops below altitude 10° 06:55:44 10° 160° (SSE) 3,076 10.2 -6.5°
Sets 07:01:53 0° 122° (ESE) 3,850 12.3 -5.6°
